Location: Andrest
(43.3200°N, 0.0641°E)
Time: 20:56:01
(UTC+00:00)

Meteor 1-4 Rocket - Pass Details

Date: 01 December 2020
Orbit: 449 x 500 km, 81.2° (Epoch: 21 January)

Event Time Altitude Azimuth Distance (km) Brightness Sun altitude
Rises 17:28:48 0° 183° (S) 2,524 6.5 -11.4°
Reaches altitude 10° 17:30:54 10° 181° (S) 1,641 5.5 -11.7°
Maximum altitude 17:34:28 68° 98° (E) 511 2.4 -12.3°
Drops below altitude 10° 17:38:00 10° 15° (NNE) 1,626 4.9 -12.9°
Enters shadow 17:38:40 - 14° (NNE) 1,903 5.3 -13.1°
